User: anonymous   Login
Location: Caltech
(34.1382°N, 118.1253°W)
Time: 12:16:58
(UTC-07:00)
Language:

Cosmos 1833 - Orbit

View from above orbital plane
View from above orbital plane
View from above satellite
View from above satellite

Ground track
Ground track

The orbit data is extracted from the following two-line orbital elements,

1 17589U 87027A   15143.79767470  .00000225  00000-0  14660-3 0  9994
2 17589 070.9134 332.1198 0013741 008.2230 077.2473 14.12836161453616
Epoch (UTC): 23 May 2015 19:08:39
Eccentricity: 0.0013741
inclination: 70.9134°
perigee height: 840 km
apogee height: 859 km
right ascension of ascending node: 332.1198°
argument of perigee: 8.2230°
revolutions per day: 14.12836161
mean anomaly at epoch: 77.2473°
orbit number at epoch: 45361

The dashed part of the orbit path shows where the satellite is in the earth's shadow,  

DLR